Tracking 30970 objects as of 3-Jul-2025
HD Live streaming from Space Station
objects crossing your sky now

STARLINK-3920

Track STARLINK-3920 now!
10-day predictions
STARLINK-3920 is classified as:


NORAD ID: 52575
Int'l Code: 2022-051AR
Perigee: 542.0 km
Apogee: 543.9 km
Inclination: 53.2 °
Period: 95.4 minutes
Semi major axis: 6913 km
RCS: Unknown
Launch date: May 13, 2022
Source: United States (US)
Launch site: AIR FORCE WESTERN TEST RANGE (AFWTR)
Your satellite tracking list
Your tracking list is empty




NASA's NSSDC Master Catalog

Two Line Element Set (TLE):
1 52575U 22051AR  25183.95542707  .00000532  00000-0  49946-4 0  9998
2 52575  53.2162 160.1703 0001400  86.0550 274.0603 15.10117949173889
Source of the keplerian elements: AFSPC